Change the Weather History Date:

Sunday, October 5, 2014

  Actual Average Record
Temperature  
Mean Temperature 47 °F 51 °F  
Max Temperature 59 °F 63 °F 84 °F (2007)
Min Temperature 35 °F 39 °F 24 °F (1996)
Degree Days  
Heating Degree Days 18 14  
Month to date heating degree days 49 67  
Since 1 July heating degree days 265 319  
Cooling Degree Days 0 0  
Month to date cooling degree days 0 0  
Year to date cooling degree days 277 344  
Moisture  
Dew Point 38 °F    
Average Humidity 68    
Maximum Humidity 100    
Minimum Humidity 36    
Precipitation  
Precipitation 0.00 in 0.15 in 0.49 in (2000)
Month to date precipitation 1.86 0.82  
Year to date precipitation 30.70 32.95  
Sea Level Pressure  
Sea Level Pressure 29.76 in    
Wind  
Wind Speed 5 mph (West)    
Max Wind Speed 16 mph    
Max Gust Speed 22 mph    
Visibility 10 miles    
Events      
T = Trace of Precipitation, MM = Missing Value Source: NWS Daily Summary

Daily Weather History Graph

Daily Weather History Graph

Search for Another Location

Airport or City:

Trip Planner

Search our weather history database for the weather conditions in past years. The results will help you decide how hot, cold, wet, or windy it might be!

Date:

Astronomy

Oct. 05, 2014 Rise Set
Actual Time 6:52 AM EDT 6:24 PM EDT
Civil Twilight 6:23 AM EDT 6:52 PM EDT
Nautical Twilight 5:50 AM EDT 7:25 PM EDT
Astronomical Twilight 5:17 AM EDT 7:58 PM EDT
Moon 4:44 PM EDT (10/5) 3:20 AM EDT (10/5)
Length of Visible Light 12h 29m
Length of Day
11h 32m
Waxing Gibbous, 89% of the Moon is Illuminated
Oct 5
Waxing Gibbous
Oct 8
Full
Oct 15
Last Quarter
Oct 23
New
Oct 30
First Quarter

Hourly Weather History & Observations

Time (EDT) Temp. Windchill Dew Point Humidity Pressure Visibility Wind Dir Wind Speed Gust Speed Precip Events Conditions
12:54 AM 51.1 °F - 46.9 °F 86% 29.62 in 10.0 mi NW 4.6 mph - N/A   Overcast
1:26 AM 51.1 °F - 46.0 °F 83% 29.61 in 10.0 mi WNW 6.9 mph - N/A   Mostly Cloudy
1:54 AM 50.0 °F - 45.0 °F 83% 29.61 in 10.0 mi West 9.2 mph - N/A   Clear
2:54 AM 48.0 °F - 43.0 °F 83% 29.62 in 10.0 mi Variable 5.8 mph - N/A   Clear
3:54 AM 46.0 °F - 43.0 °F 89% 29.63 in 10.0 mi Calm Calm - N/A   Mostly Cloudy
4:01 AM 46.9 °F - 43.0 °F 86% 29.62 in 10.0 mi Variable 3.5 mph - N/A   Mostly Cloudy
4:54 AM 48.0 °F - 42.1 °F 80% 29.65 in 10.0 mi West 4.6 mph - N/A   Mostly Cloudy
5:26 AM 46.0 °F 44.8 °F 43.0 °F 89% 29.66 in 10.0 mi West 3.5 mph - N/A   Mostly Cloudy
5:54 AM 46.0 °F - 43.0 °F 89% 29.67 in 10.0 mi Calm Calm - N/A   Mostly Cloudy
6:54 AM 46.0 °F 42.5 °F 42.1 °F 86% 29.69 in 10.0 mi WSW 6.9 mph - N/A   Mostly Cloudy
7:54 AM 46.9 °F - 39.9 °F 77% 29.73 in 10.0 mi WSW 4.6 mph - N/A   Clear
8:54 AM 48.9 °F - 39.9 °F 71% 29.74 in 10.0 mi West 8.1 mph - N/A   Clear
9:54 AM 51.1 °F - 37.9 °F 61% 29.74 in 10.0 mi Variable 5.8 mph - N/A   Clear
10:54 AM 52.0 °F - 36.0 °F 54% 29.76 in 10.0 mi WNW 9.2 mph - N/A   Clear
11:54 AM 55.0 °F - 36.0 °F 49% 29.76 in 10.0 mi WSW 12.7 mph 16.1 mph N/A   Partly Cloudy
12:54 PM 55.9 °F - 30.9 °F 39% 29.76 in 10.0 mi WSW 9.2 mph - N/A   Partly Cloudy
1:54 PM 57.9 °F - 30.0 °F 35% 29.76 in 10.0 mi WNW 10.4 mph - N/A   Clear
2:54 PM 57.9 °F - 30.9 °F 36% 29.77 in 10.0 mi West 8.1 mph - N/A   Clear
3:54 PM 57.9 °F - 30.9 °F 36% 29.79 in 10.0 mi WSW 6.9 mph - N/A   Partly Cloudy
4:54 PM 57.9 °F - 30.9 °F 36% 29.80 in 10.0 mi WNW 8.1 mph - N/A   Clear
5:54 PM 54.0 °F - 35.1 °F 49% 29.83 in 10.0 mi West 3.5 mph - N/A   Clear
6:54 PM 48.0 °F - 39.0 °F 71% 29.86 in 10.0 mi Calm Calm - N/A   Clear
7:54 PM 43.0 °F 41.3 °F 39.9 °F 89% 29.90 in 10.0 mi NNW 3.5 mph - N/A   Clear
8:54 PM 39.9 °F - 37.9 °F 93% 29.92 in 10.0 mi Calm Calm - N/A   Clear
9:54 PM 39.0 °F - 37.0 °F 93% 29.94 in 10.0 mi Calm Calm - N/A   Clear
10:52 PM 37.4 °F - 35.6 °F 93% 29.94 in 10.0 mi Calm Calm - N/A   Scattered Clouds
10:54 PM 37.0 °F - 36.0 °F 96% 29.96 in 10.0 mi Calm Calm - N/A   Scattered Clouds
11:54 PM 36.0 °F - 35.1 °F 97% 29.97 in 10.0 mi Calm Calm - N/A   Clear